Regional Weather Roundup
Issued by NWS

Home | Current Version | Previous Version | Text Only | Print | Product List | Glossary Off
Versions: 1 2 3 4 5 6 7 8 9 10 11 12 13 14 15 16 17 18 19 20 21 22 23 24 25 26 27 28 29 30 31 32 33 34 35 36 37 38 39 40 41 42 43 44 45 46 47 48 49 50

000
ASUS43 KDTX 251701
RWRMI
MICHIGAN HOURLY REGIONAL WEATHER ROUNDUP
NATIONAL WEATHER SERVICE DETROIT/PONTIAC MI
100 PM EDT SUN SEP 25 2016

NOTE: "FAIR" INDICATES FEW OR NO CLOUDS BELOW 12,000 FEET WITH NO
SIGNIFICANT WEATHER AND/OR OBSTRUCTION TO VISIBILITY.

MIZ047>049-052>055-059>063-066>070-074>076-081>083-251800-
SOUTHEAST LOWER MICHIGAN

CITY           SKY/WX    TMP DP  RH WIND       PRES   REMARKS
ADRIAN         SUNNY     71  39  31 SE7       30.17F
ALMA           PTSUNNY   69  57  65 SW6       30.16F
ANN ARBOR      SUNNY     70  53  54 E10       30.17F
BAD AXE        MOSUNNY   67  51  57 S9        30.19F
CARO           SUNNY     69  54  58 SE8       30.17F
DETROIT CITY   SUNNY     69  51  52 SE8       30.20S
DETROIT        MOSUNNY   70  51  51 SE6       30.20S
FLINT          SUNNY     69  54  58 SE10      30.17F
GROSSE ILE     SUNNY     69  53  56 S9        30.19R
HILLSDALE      PTSUNNY   70  41  35 SE3       30.16F
HOWELL         SUNNY     69  54  60 SE10      30.18F

CITY           SKY/WX    TMP DP  RH WIND       PRES   REMARKS
JACKSON        MOSUNNY   69  51  52 SE9       30.16F
LAMBERTVILLE   SUNNY     71  45  38 E6        30.18S
LANSING        MOSUNNY   69  52  54 SE7       30.16F
LAPEER         FAIR      68  53  59 S6        30.19F
MASON          MOSUNNY   70  52  52 SE8       30.16F
MONROE         SUNNY     69  51  52 SE8G18    30.18S
MT. CLEMENS    MOSUNNY   68  52  55 S9G17     30.19S
PONTIAC        PTSUNNY   68  50  52 S9        30.18F
PORT HOPE        N/A     65  54  67 SE14G21   30.18F
PORT HURON     SUNNY     68  52  56 SE8       30.20F
TRI CITIES     SUNNY     69  55  60 S8        30.17F
MIDLAND        PTSUNNY   69  54  58 S8        30.16F
TROY           SUNNY     71  47  41 S7        30.21F
SAGINAW HB     SUNNY     70  52  52 S9        30.16F
$$
MIZ043>046-050>051-056>058-064>065-071>073-077>080-251800-
SOUTHWEST LOWER MICHIGAN

CITY           SKY/WX    TMP DP  RH WIND       PRES   REMARKS
BATTLE CREEK   SUNNY     70  50  49 SE7       30.15F
BENTON HARBOR  SUNNY     75  56  51 SE12      30.09F
BIG RAPIDS     MOSUNNY   69  54  58 SE14      30.12F
COLDWATER      SUNNY     71  44  37 SE5       30.15F
FREMONT        FAIR      68  53  59 SE7       30.11F
HOLLAND        SUNNY     71  57  61 SE12      30.11F
GRAND RAPIDS   CLOUDY    69  54  58 SE10      30.13F
IONIA          CLOUDY    68  52  57 SE9       30.14F
KALAMAZOO      MOSUNNY   71  51  49 SE7       30.14F
LUDINGTON      CLOUDY    68  57  69 SE9       30.07F
MARSHALL       SUNNY     71  46  41 S8        30.15F
MUSKEGON       CLOUDY    72  57  59 SE10      30.10F
SOUTH HAVEN    MOSUNNY   73  58  57 SE9       30.10F
$$
MIZ016>042-251800-
NORTHERN LOWER MICHIGAN

CITY           SKY/WX    TMP DP  RH WIND       PRES   REMARKS
ALPENA         MOSUNNY   69  47  45 S9        30.17F
BEAVER ISLAND  CLOUDY    67  54  64 SE12      30.08F
BELLAIRE       PTSUNNY   69  51  51 S9        30.10F
CADILLAC       MOSUNNY   67  52  58 SE12      30.12F
CHARLEVOIX     CLOUDY    66  51  58 E9        30.13F
FRANKFORT      MOSUNNY   70  55  59 SE12G20   30.06F
GAYLORD        CLOUDY    66  48  52 S10       30.14F
GRAYLING       MOSUNNY   69  51  53 S10       30.15F
HARBOR SPRINGS CLOUDY    65  52  61 E6        30.12F
HOUGHTON LAKE  MOSUNNY   66  49  54 S10       30.16F
MANISTEE       MOSUNNY   70  57  63 SE9G16    30.06F
OSCODA         PTSUNNY   66  47  51 S10G17    30.18S
PELLSTON       CLOUDY    65  50  58 SE9       30.13F
ROGERS CITY    MOSUNNY   67  49  51 S12       30.17F
TRAVERSE CITY  PTSUNNY   71  54  54 VRB7      30.07F
$$
MIZ007>008-015-251800-
EASTERN UPPER MICHIGAN

CITY           SKY/WX    TMP DP  RH WIND       PRES   REMARKS
KINROSS        PTSUNNY   64  50  60 S17       30.14F
MACKINAC ISLAN PTSUNNY   63  49  61 SE7G17    30.13F
NEWBERRY       CLOUDY    64  54  69 SE16G24   30.08F
S. S. MARIE    CLOUDY    66  51  58 SE13      30.13F
MUNISING         N/A     69  57  65 S12G22    30.01F
$$
MIZ004>006-011>014-085-251800-
CENTRAL UPPER MICHIGAN

CITY           SKY/WX    TMP DP  RH WIND       PRES   REMARKS
MANISTIQUE     CLOUDY    65  58  78 SE13G18   30.06S
ESCANABA       CLOUDY    65  60  84 SE14G20   30.02F
MENOMINEE      CLOUDY    68  63  84 S15       30.00F
SAWYER-GWINN   CLOUDY    64  57  77 S18G25    30.01F
$$
MIZ001>003-009>011-084-251800-
WESTERN UPPER MICHIGAN

CITY           SKY/WX    TMP DP  RH WIND       PRES   REMARKS
IRON MOUNTAIN  CLOUDY    63  58  83 SE12      29.97F
HOUGHTON       RAIN      62  59  90 SE6       29.91F FOG
COPPER HARBOR    N/A     64  59  83 S15G24    29.90F
IRONWOOD       CLOUDY    65  62  90 S10G17    29.86F
$$

ABBREVIATIONS USED IN REMARKS
   TC - TEMPERATURE IN CELSIUS
  WCI - WIND CHILL INDEX
   HX - HEAT INDEX
  VSB - VISIBILITY





USA.gov is the U.S. government's official web portal to all federal, state and local government web resources and services.